07:18
Airports
History
Links
Donate
Help keep this website running!
PayPal
Bitcoin
This page is community maintained. The information is intended for PC simulator navigation or reference.
Always use approved charts for navigation.
CYZS
CORAL HARBOUR
CORAL HARBOUR (CYZS)
Coral Harbour, Nunavut, Canada
4
Lat/Lng:64° 11' 36" N / 83° 21' 34.01" W
64.193334 / -83.359446
Elevation:210'ft / 64mMSL
ID / ICAO:CYZS
Runways:1
Longest:16T-34T
Gravel 1,513m / 4,963ft
METAR07:00 GMT 2018-01-19
Altimeter: 29.85
Visibility: 15.0 statute miles
Wind: 6 knots (from 020°)
Temp: -27°c / -17°f
Humidity: 75.4%

METAR: CYZS 190700Z 02006KT 15SM -SN BKN022 M27/M30 A2985 RMK SC7 SLP120

(Powered by phpweather)
Airport Radio Frequencies
MANDATORY FREQ: 122.1
Tower: 133.7
Nearby VORs <50NM
Nearby NDBs
Runway 16T / 34T
Dimensions:1512.8 x 30.5m 4963' x 100'ft
Surface:Gravel
Edge Lights:Medium intensity
Runway 16T [A]Runway 34T [B]
Heading:155°TH 335°TH
Lat:
Lng:
64° 11' 58.3"N
83° 21' 57.86"W
64° 11' 13.7"N
83° 21' 10.15"W
ALS:MALS
User Notes and Comments
64° 11' 36" N / 83° 21' 34.01" W
Distance To
Airport ID:
Nearby Airports
4 REPULSE BAY 180.7 NM
CYUT NNW 332°
4 Cape Dorset 205.3 NM
CYTE ( WX ) E 89°
4 IVUJIVIK 208.5 NM
CYIK SE 126°
4 Chesterfield Inlet 232.4 NM
CYCS WSW 255°
4 Salluit 276.9 NM
CYZG ESE 120°
(U) RANKIN INLET 286.0 NM
CYRT ( WX ) WSW 250°
4 AKULIVIK 286.1 NM
CYKO SE 144°
VFR Chart
Flight Planning at SkyVector.com